PILOTS ONLINE: 173    ATC ONLINE: 16

LGRX

Araxos Airport

Location

IATA GPA
City Patras
Country  Greece
Latitude 38° 9' 3" N
Longitude 21° 25' 32" E
Elevation 46 ft
Type Medium Airport

Map

Weather

METAR
2014/10/24 06:50
LGRX 240650Z VRB03KT 9999 -RA FEW018TCU SCT025 BKN080 14/12 Q1004
TAF
2013/11/22 09:36
TAF LGRX 220800Z 2209/2221 20010KT 9999 FEW025 SCT080 PROB30 
      TEMPO 2209/2221 7000 RA SCT020 BKN080 
      BECMG 2210/2212 24010KT

Runways

18L/36R 10999 ft / 70 ft
18R/36L 10997 ft / 148 ft

Outbound flights

Callsign Flying to Pilot ATD/STD ETA Aircraft

Inbound flights

Callsign Flying from Pilot ATD ETA Aircraft